Flag for France Weather past 2 weeks in Paris, France

Now
54 °F

Mostly cloudy.


Feels Like: 49 °F
Forecast: 46 / 63 °F
Wind: 15 mph from East

Location: Villacoublay


UV Index: 0 (Low)

Visibility: N/A


Pressure: 29.89 "Hg

Humidity: 44%

Dew point: 32 °F

Location of ParisLocation

Historic Weather in Paris

°F

Paris temperature yesterday

Maximum temperature yesterday: 55 °F (at 12:00 AM)
Minimum temperature yesterday: 46 °F (at 10:30 PM)
Average temperature yesterday: 52 °F

Past Weeks' High & Low Weather Summary

 TemperatureHumidityPressure
High72 °F (Apr 7, 4:30 PM)100% (Apr 7, 3:30 AM)30.36 "Hg (Apr 7, 3:30 AM)
Low39 °F (Apr 9, 6:30 AM)23% (Apr 17, 6:00 PM)29.83 "Hg (Apr 7, 4:00 PM)
Average53 °F64%30.12 "Hg
* Reported Apr 4 4:00 PM — Apr 19 4:00 PM, Paris, Weather by CustomWeather, © 2014

Note: Actual official high and low records may vary slightly from our data, if they occured in-between our weather recording intervals... More about our weather records

Advertising

Historic Weather Conditions — Data for Previous 24 hours

 ConditionsComfort  
Time TempWeatherWind HumidityBarometerVisibility
4:00 PM
Apr 19
54 °FClear.12 mph47%29.89 "HgN/A
3:30 PM57 °FClear.9 mph39%29.89 "HgN/A
3:00 PM54 °FBroken clouds.12 mph44%29.89 "HgN/A
2:30 PM54 °FPartly sunny.13 mph47%29.92 "HgN/A
2:00 PM54 °FBroken clouds.14 mph47%29.92 "HgN/A
1:30 PM54 °FPartly sunny.9 mph47%29.92 "HgN/A
1:00 PM52 °FPartly sunny.9 mph54%29.92 "HgN/A
12:30 PM52 °FBroken clouds.10 mph54%29.95 "HgN/A
12:00 PM50 °FPassing clouds.10 mph58%29.95 "HgN/A
11:30 AM48 °FPassing clouds.10 mph62%29.95 "HgN/A
11:00 AM48 °FClear.10 mph62%29.95 "HgN/A
10:30 AM46 °FClear.10 mph66%29.95 "HgN/A
10:00 AM45 °FPartly sunny.10 mph71%29.95 "HgN/A
9:30 AM43 °FMostly cloudy.12 mph76%29.95 "HgN/A
9:00 AM43 °FClear.10 mph76%29.98 "HgN/A
8:30 AM43 °FClear.9 mph71%29.95 "HgN/A
8:00 AM41 °FPassing clouds.10 mph81%29.98 "HgN/A
7:30 AM41 °FClear.13 mph81%29.95 "HgN/A
7:00 AM41 °FClear.13 mph81%29.95 "HgN/A
6:30 AM41 °FClear.10 mph81%29.95 "HgN/A
6:00 AM41 °FClear.9 mph81%29.95 "HgN/A
5:30 AM41 °FClear.10 mph81%29.95 "HgN/A
5:00 AM41 °FClear.10 mph81%29.95 "HgN/A
4:30 AM43 °FClear.12 mph76%29.95 "HgN/A
4:00 AM43 °FClear.12 mph76%29.98 "HgN/A
3:30 AM43 °FClear.9 mph76%29.98 "HgN/A
3:00 AM43 °FClear.10 mph76%29.98 "HgN/A
2:30 AM43 °FPassing clouds.13 mph76%30.01 "HgN/A
2:00 AM45 °FPassing clouds.13 mph71%30.01 "HgN/A
1:30 AM45 °FPassing clouds.15 mph71%30.01 "HgN/A
1:00 AM45 °FClear.9 mph71%30.01 "HgN/A
12:30 AM45 °FClear.10 mph66%30.01 "HgN/A
12:00 AM46 °FClear.8 mph62%30.01 "HgN/A
11:30 PM
Apr 18
46 °FClear.10 mph57%30.01 "HgN/A
11:00 PM46 °FClear.9 mph57%30.01 "HgN/A
10:30 PM46 °FClear.9 mph53%30.01 "HgN/A
10:00 PM48 °FClear.9 mph50%30.01 "HgN/A
9:30 PM50 °FClear.9 mph47%30.01 "HgN/A
9:00 PM50 °FClear.13 mph43%30.01 "HgN/A
8:30 PM50 °FClear.12 mph47%30.01 "HgN/A
8:00 PM52 °FClear.12 mph41%30.01 "HgN/A
7:30 PM52 °FClear.13 mph41%30.01 "HgN/A
7:00 PM55 °FClear.12 mph36%30.01 "HgN/A
6:30 PM54 °FClear.14 mph38%30.01 "HgN/A
6:00 PM55 °FClear.9 mph38%30.01 "HgN/A
5:30 PM55 °FBroken clouds.10 mph41%30.01 "HgN/A
5:00 PM55 °FClear.14 mph44%30.01 "HgN/A
Weather by CustomWeather, © 2014

See weather overview